Wind_Speed
47 51 55 64 71 67 59 54 55 65 61 62 67 64 61 64 64 60 61 54 52 55 56 58 56 56 53 56 64 66 68 73 75 72 77 83 82 81 89 82 79 86 89
56 47 53 62 66 75 77 69 69 63 62 63 64 66 68 64 63 61 65 65 61 62 60 61 58 60 64 68 70 71 68 76 77 78 84 87 87 91 90 93 97 104 103
49 46 49 55 62 73 85 86 68 64 64 72 67 64 63 68 66 70 71 70 68 70 71 75 76 76 77 76 78 81 83 81 85 84 86 88 88 97 94 104 103 108 109
30 31 40 45 56 67 79 86 88 78 76 80 82 77 70 66 68 74 76 74 76 74 72 75 77 78 80 87 89 85 84 87 89 94 97 101 104 106 111 109 111 111 112
15 13 64 47 50 62 74 81 84 93 93 84 90 90 89 80 76 76 79 81 85 86 90 89 87 90 91 93 97 97 97 94 98 101 104 106 108 109 113 115 118 119 116
45 50 55 43 44 45 52 64 78 86 87 92 93 90 90 95 94 83 80 81 82 90 95 96 98 102 98 98 91 90 90 95 101 103 105 109 110 110 109 96 94 97 87
44 44 29 40 41 46 53 55 63 70 83 87 91 95 94 92 98 96 85 86 84 85 85 86 89 92 95 98 100 102 103 106 105 111 111 102 96 90 86 79 73 63 58
31 38 37 35 35 38 41 49 57 62 68 71 79 82 83 89 91 96 95 89 88 90 94 97 100 103 101 102 101 95 99 95 86 87 83 81 77 73 64 55 47 40 38
35 39 39 42 43 42 46 46 48 55 62 67 74 76 76 79 85 90 89 91 89 88 86 89 89 89 85 78 78 80 78 75 76 74 68 60 55 48 40 33 30 28 29
20 33 36 38 43 39 40 37 35 37 43 50 54 57 57 58 62 62 67 68 65 65 67 65 65 67 67 68 69 69 66 61 55 49 44 38 33 30 27 25 26 26 26
21 18 18 21 24 23 26 28 27 25 28 32 34 36 38 38 38 40 43 47 50 53 55 56 58 59 59 58 55 51 47 44 39 33 30 29 27 26 26 25 22 22 23
16 18 22 22 21 19 20 20 24 26 27 30 34 36 38 40 41 44 47 47 47 47 48 48 49 51 50 49 47 47 44 37 32 31 30 27 26 25 23 22 22 20 20
17 20 22 26 25 24 27 29 32 33 32 35 38 41 42 40 37 35 37 39 43 47 48 49 51 50 52 50 48 46 43 38 35 32 32 33 30 28 26 23 24 26 27
23 22 20 21 23 23 22 24 25 27 30 32 31 31 32 35 37 36 37 41 46 51 53 55 55 55 53 51 47 46 43 39 37 35 33 35 36 34 33 30 28 26 29
25 23 22 22 24 25 27 26 24 26 28 30 29 31 32 34 36 39 39 42 48 51 51 52 52 48 48 48 49 48 43 40 39 38 35 37 38 38 37 38 41 40 38
28 26 26 24 25 26 26 28 30 31 30 29 31 35 37 41 42 42 45 51 52 51 49 49 50 51 52 53 54 51 47 44 42 41 40 39 39 39 40 41 42 42 42
30 30 30 27 28 30 31 34 33 34 36 37 41 44 47 50 51 53 53 52 52 52 53 54 55 55 55 51 51 51 50 47 45 44 44 41 40 41 44 46 45 45 44
30 33 31 29 31 34 35 34 36 38 42 45 48 50 52 51 50 50 50 52 50 51 51 50 50 53 54 52 48 45 43 28 48 45 43 44 43 42 44 46 46 48 48
39 37 39 36 35 36 36 38 39 42 46 48 50 50 50 50 47 47 52 51 46 50 45 43 45 49 49 43 37 34 28 29 35 40 42 45 46 45 46 46 49 48 46
44 39 37 36 38 39 37 36 39 42 45 46 48 48 50 47 50 45 48 48 53 55 46 44 51 46 41 35 32 33 32 31 38 42 40 44 44 41 41 45 47 48 50
38 39 39 41 40 37 39 42 42 43 47 48 42 44 47 51 49 49 53 53 60 47 44 39 35 33 23 19 22 30 34 17 46 45 45 46 44 42 44 46 49 52 54
39 40 41 42 39 40 44 44 47 53 49 43 41 47 49 43 49 53 54 53 49 42 39 32 25 23 14 16 13 15 21 26 35 43 44 46 48 49 51 53 56 58 62
41 40 42 42 43 47 46 48 51 47 40 39 37 39 41 44 51 47 56 44 33 32 27 23 21 24 23 21 21 25 34 45 50 56 48 45 48 52 56 58 62 64 65
43 44 43 41 44 43 49 51 44 39 37 36 38 44 44 50 52 54 49 32 21 18 13 10 14 22 23 21 25 33 37 48 50 48 46 48 55 62 64 65 65 60 61
39 38 41 44 43 48 39 47 48 42 39 41 41 40 36 31 32 31 27 21 17 19 17 17 15 14 8 21 40 37 38 50 48 43 47 53 59 61 62 64 66 66 71
42 43 43 44 46 47 45 51 48 44 41 40 38 30 27 27 26 23 20 20 16 15 15 13 7 5 2 16 22 39 29 23 62 56 57 59 57 67 68 71 73 77 82
Wind_Direction
277 270 257 242 241 241 228 241 255 250 253 254 256 251 252 266 266 265 266 259 265 263 262 271 274 275 272 276 274 276 276 279 279 278 281 282 276 277 281 281 278 272 284
287 277 263 252 245 238 240 246 250 246 247 254 252 255 259 263 259 259 261 263 263 263 267 269 262 261 266 275 278 281 279 277 277 277 278 278 277 276 273 277 284 279 279
294 277 260 249 246 244 243 243 246 240 238 244 248 252 256 256 258 261 263 265 261 266 264 265 266 267 275 277 281 282 282 279 280 282 276 279 279 281 279 277 288 287 290
295 284 278 253 247 248 246 245 243 242 243 242 243 249 252 254 258 261 262 262 264 262 264 266 270 271 274 279 282 282 280 274 274 273 280 280 284 286 286 287 290 289 289
183 284 264 271 252 249 247 246 246 246 249 250 247 248 250 251 256 258 256 258 261 262 266 269 269 272 272 276 277 277 280 281 282 282 282 285 285 286 287 287 288 288 288
210 225 244 263 259 245 244 247 245 246 246 247 247 249 251 251 254 258 260 262 264 265 266 267 267 272 276 276 274 274 275 277 279 279 281 282 284 287 290 290 285 292 288
222 231 256 265 263 254 247 245 243 245 241 243 248 250 253 256 255 255 260 261 263 264 265 265 268 271 274 278 278 278 277 280 281 283 284 287 288 287 288 287 287 285 284
214 226 231 243 245 248 247 251 246 243 241 244 248 252 255 254 256 257 258 262 266 270 270 272 276 280 282 282 283 284 284 284 284 283 285 286 287 288 288 286 285 286 288
218 226 230 236 243 249 254 256 260 259 254 252 251 252 258 260 261 261 264 269 272 275 277 278 277 280 281 282 283 283 284 285 285 288 291 289 286 285 284 285 288 288 285
234 240 244 252 254 259 261 264 262 262 258 260 262 264 269 271 271 271 270 272 273 276 278 278 279 282 286 290 291 293 294 294 291 289 286 285 282 281 284 288 289 289 287
286 258 260 265 267 264 264 264 270 269 268 266 265 265 269 271 270 270 271 275 276 278 281 284 289 292 295 296 297 300 297 291 287 285 284 281 284 292 293 293 291 290 291
279 276 272 266 276 283 290 275 277 279 278 277 275 272 270 275 275 279 282 284 287 288 287 291 295 299 298 299 301 305 298 287 284 285 282 276 280 281 282 287 291 291 290
291 281 273 269 277 278 277 277 281 284 281 280 279 276 276 279 281 283 288 290 291 290 292 292 295 296 295 297 298 301 298 285 280 282 275 267 276 278 280 284 284 290 293
294 294 290 284 283 282 281 279 279 276 277 278 281 282 284 287 289 291 294 297 298 296 293 292 291 289 291 293 292 295 296 282 276 276 277 270 270 270 272 274 278 286 288
287 293 296 291 284 283 281 281 286 286 290 286 285 288 289 287 287 289 289 293 301 302 293 290 289 288 288 286 287 288 289 283 272 270 270 270 270 267 268 271 276 282 288
279 284 295 294 287 284 286 286 283 292 289 287 291 299 302 301 299 297 292 295 300 301 297 293 290 288 286 284 284 282 282 279 268 266 264 267 268 265 268 273 278 283 284
285 287 295 294 284 284 288 289 287 288 293 296 301 301 300 298 295 295 295 298 300 301 298 293 289 286 284 281 281 283 284 280 271 268 268 269 268 269 274 278 282 283 282
292 293 297 294 288 294 294 297 289 287 288 292 295 295 295 296 296 296 299 301 300 300 302 298 292 286 283 281 280 278 271 283 273 270 269 270 271 273 276 279 282 285 288
285 287 288 288 293 292 291 292 286 283 286 289 291 291 292 295 296 301 301 296 295 309 299 295 297 294 289 282 272 267 258 249 252 266 271 270 271 273 278 281 283 285 286
279 281 279 283 291 293 292 292 292 293 294 292 291 292 296 296 294 294 306 293 295 305 299 294 302 300 294 274 254 242 241 246 259 267 273 272 272 274 278 285 285 285 289
276 278 281 287 291 289 291 294 297 298 299 297 296 297 289 294 291 292 298 295 298 301 303 296 301 307 310 318 292 258 247 238 264 274 278 274 275 276 282 283 285 288 289
278 283 286 289 291 294 298 299 303 303 302 296 294 289 287 289 291 293 295 300 299 303 302 299 301 305 322 343 313 277 261 280 291 288 287 287 283 281 284 286 289 291 294
284 288 290 293 294 298 300 303 305 304 301 298 294 295 288 287 298 294 302 304 302 304 302 296 271 273 275 266 278 274 277 286 293 298 290 287 284 282 282 285 288 291 293
287 291 291 290 294 296 299 303 300 297 295 296 295 293 293 292 295 297 302 302 302 285 273 288 275 281 298 303 303 300 299 298 299 298 296 292 291 289 289 291 292 291 291
293 291 290 293 294 302 303 300 299 297 297 300 299 299 302 303 296 296 295 287 302 297 268 278 314 305 275 305 299 302 299 311 311 299 296 299 296 295 294 294 295 293 292
290 291 291 293 294 296 289 288 294 294 295 297 298 297 301 301 297 295 289 291 321 322 298 307 331 315 22 203 300 281 287 291 276 290 289 290 282 286 290 290 292 293 294
Height
10884 10883 10885 10885 10886 10883 10877 10874 10876 10883 10887 10886 10888 10888 10888 10889 10890 10892 10895 10896 10897 10897 10898 10898 10898 10899 10899 10898 10899 10898 10896 10895 10894 10895 10887 10885 10884 10884 10877 10876 10877 10874 10868
10862 10860 10860 10861 10861 10863 10862 10860 10859 10863 10870 10871 10870 10872 10871 10871 10872 10875 10877 10880 10881 10883 10884 10885 10885 10884 10884 10883 10883 10883 10880 10879 10876 10873 10869 10867 10863 10861 10858 10857 10856 10853 10843
10842 10838 10838 10841 10835 10838 10838 10843 10844 10846 10848 10851 10851 10854 10854 10854 10856 10860 10862 10864 10866 10866 10868 10870 10869 10868 10867 10866 10864 10865 10862 10861 10859 10858 10854 10847 10846 10840 10840 10833 10827 10821 10818
10822 10821 10823 10826 10821 10817 10820 10823 10828 10828 10829 10831 10831 10833 10835 10837 10840 10843 10846 10848 10849 10852 10852 10853 10852 10853 10852 10851 10847 10846 10843 10842 10838 10834 10828 10823 10815 10811 10809 10803 10802 10798 10794
10812 10810 10805 10816 10809 10805 10806 10804 10809 10810 10813 10815 10814 10814 10817 10820 10823 10826 10827 10830 10832 10834 10833 10832 10832 10832 10830 10829 10827 10825 10820 10819 10816 10814 10808 10803 10798 10791 10787 10782 10777 10769 10763
10787 10792 10795 10793 10789 10788 10784 10784 10789 10793 10798 10797 10794 10796 10799 10802 10806 10809 10811 10813 10814 10813 10814 10811 10814 10814 10810 10809 10805 10803 10799 10797 10794 10788 10782 10779 10774 10767 10762 10751 10749 10741 10732
10763 10775 10775 10771 10772 10773 10770 10768 10769 10773 10778 10777 10778 10781 10783 10787 10789 10793 10794 10795 10795 10794 10794 10792 10793 10791 10789 10786 10782 10780 10777 10773 10769 10763 10758 10752 10746 10743 10736 10730 10723 10716 10713
10748 10751 10753 10756 10756 10756 10754 10757 10758 10759 10763 10765 10766 10768 10768 10770 10772 10776 10777 10778 10778 10777 10775 10773 10772 10769 10766 10761 10760 10755 10751 10748 10742 10738 10733 10727 10722 10720 10714 10711 10705 10703 10699
10737 10742 10744 10745 10746 10745 10747 10748 10749 10751 10752 10753 10754 10757 10758 10760 10758 10761 10761 10762 10760 10757 10754 10750 10751 10749 10745 10740 10737 10734 10729 10725 10721 10716 10711 10707 10704 10700 10698 10697 10693 10693 10692
10736 10737 10737 10736 10737 10739 10738 10739 10739 10739 10741 10742 10744 10746 10745 10745 10743 10743 10744 10744 10742 10740 10737 10734 10733 10730 10726 10721 10717 10713 10709 10705 10701 10699 10696 10692 10691 10689 10687 10687 10687 10685 10684
10728 10729 10730 10731 10732 10732 10731 10732 10733 10732 10732 10733 10734 10735 10734 10733 10731 10730 10730 10729 10727 10724 10721 10720 10716 10714 10711 10705 10701 10697 10694 10691 10688 10687 10686 10684 10681 10679 10677 10677 10677 10676 10675
10726 10726 10726 10727 10726 10725 10725 10726 10727 10727 10726 10725 10725 10724 10723 10721 10720 10718 10715 10714 10711 10709 10708 10706 10702 10699 10696 10694 10690 10685 10682 10681 10678 10677 10676 10675 10675 10674 10673 10671 10669 10668 10667
10724 10722 10721 10721 10720 10720 10721 10721 10719 10718 10717 10716 10714 10713 10711 10709 10706 10705 10703 10702 10700 10697 10695 10694 10690 10688 10683 10682 10680 10677 10672 10670 10669 10668 10668 10668 10668 10666 10665 10664 10662 10658 10658
10720 10718 10716 10715 10714 10714 10714 10713 10712 10711 10709 10707 10704 10702 10701 10699 10697 10696 10695 10692 10689 10684 10682 10679 10676 10673 10671 10669 10667 10665 10663 10660 10659 10658 10658 10658 10657 10657 10656 10655 10654 10652 10650
10714 10712 10710 10708 10708 10707 10706 10705 10704 10702 10700 10697 10694 10693 10692 10689 10689 10686 10684 10681 10676 10671 10667 10663 10661 10658 10655 10654 10652 10650 10648 10646 10646 10646 10646 10646 10645 10645 10645 10644 10643 10642 10640
10708 10706 10704 10701 10700 10698 10697 10696 10694 10691 10689 10686 10685 10682 10680 10676 10674 10672 10670 10665 10662 10656 10653 10648 10645 10642 10639 10636 10635 10634 10634 10633 10632 10631 10632 10632 10632 10633 10633 10632 10631 10630 10627
10699 10698 10696 10694 10690 10689 10688 10685 10683 10680 10678 10676 10673 10669 10666 10664 10659 10656 10653 10652 10646 10641 10637 10633 10626 10621 10617 10617 10617 10620 10621 10623 10622 10620 10621 10621 10620 10620 10620 10620 10619 10616 10614
10690 10688 10686 10683 10682 10679 10677 10675 10671 10668 10666 10663 10661 10657 10652 10649 10647 10641 10637 10634 10630 10625 10620 10614 10608 10603 10599 10600 10602 10604 10603 10608 10609 10606 10607 10611 10610 10608 10606 10606 10605 10603 10600
10680 10679 10677 10674 10672 10669 10667 10663 10661 10658 10654 10651 10646 10642 10638 10636 10632 10630 10625 10620 10615 10611 10606 10600 10594 10589 10587 10587 10587 10589 10589 10592 10593 10592 10594 10598 10597 10596 10595 10594 10593 10590 10588
10671 10670 10668 10665 10664 10660 10656 10653 10650 10646 10643 10640 10636 10631 10626 10623 10622 10618 10612 10606 10602 10598 10593 10587 10582 10577 10573 10570 10570 10574 10577 10580 10585 10586 10588 10591 10588 10583 10580 10580 10579 10577 10574
10661 10660 10658 10655 10653 10649 10645 10642 10639 10637 10634 10630 10626 10622 10617 10612 10605 10604 10599 10593 10589 10585 10581 10575 10571 10567 10565 10565 10567 10568 10576 10579 10574 10581 10579 10579 10577 10574 10571 10568 10566 10564 10560
10651 10651 10649 10646 10642 10638 10633 10628 10625 10621 10618 10616 10613 10608 10603 10597 10593 10588 10585 10577 10574 10569 10566 10563 10563 10564 10560 10557 10557 10561 10567 10569 10570 10568 10563 10559 10557 10556 10553 10551 10548 10545 10541
10640 10640 10637 10634 10629 10624 10619 10615 10610 10605 10602 10598 10596 10593 10589 10583 10578 10572 10570 10565 10559 10556 10552 10552 10554 10551 10550 10550 10552 10554 10551 10551 10548 10549 10544 10541 10543 10542 10539 10535 10530 10526 10521
10630 10629 10626 10622 10619 10614 10607 10599 10595 10594 10591 10588 10581 10578 10577 10571 10562 10555 10553 10550 10549 10549 10547 10546 10547 10542 10542 10546 10549 10550 10548 10546 10539 10531 10529 10528 10529 10529 10526 10520 10511 10504 10500
10618 10617 10614 10609 10605 10599 10589 10584 10582 10580 10576 10573 10569 10567 10562 10557 10552 10546 10541 10538 10539 10538 10538 10537 10537 10539 10539 10538 10548 10546 10545 10541 10532 10525 10520 10516 10512 10512 10508 10499 10491 10484 10477
10609 10605 10601 10595 10592 10587 10583 10576 10570 10566 10564 10560 10556 10554 10551 10546 10542 10539 10536 10533 10531 10533 10536 10534 10532 10532 10535 10538 10535 10528 10535 10536 10555 10520 10508 10505 10501 10494 10488 10482 10474 10466 10457